Time,TemperatureF,DewpointF,PressureIn,WindDirection,WindDirectionDegrees,WindSpeedMPH,WindSpeedGustMPH,Humidity,HourlyPrecipIn,Conditions,Clouds,dailyrainin,SolarRadiationWatts/m^2,SoftwareType,DateUTC
2013-03-16 00:02:00,53.0,46.0,-100.00,SSW,196,4.0,9.0,77,0.00,,,0.00,0.000000,,2013-03-16 05:02:00,
2013-03-16 00:12:00,53.0,46.0,-100.00,SSW,196,4.0,9.0,77,0.00,,,0.00,0.000000,,2013-03-16 05:12:00,
2013-03-16 00:32:00,53.0,47.0,-100.00,SSW,194,5.0,9.0,80,0.00,,,0.00,0.000000,,2013-03-16 05:32:00,
2013-03-16 00:42:00,53.0,47.0,-100.00,SSW,194,5.0,9.0,80,0.00,,,0.00,0.000000,,2013-03-16 05:42:00,
2013-03-16 00:53:00,53.0,47.0,-100.00,SSW,194,5.0,9.0,80,0.00,,,0.00,0.000000,,2013-03-16 05:53:00,
2013-03-16 01:02:00,53.0,47.0,-100.00,SSW,194,5.0,9.0,80,0.00,,,0.00,0.000000,,2013-03-16 06:02:00,
2013-03-16 01:12:00,53.0,47.0,-100.00,SSW,194,5.0,9.0,80,0.00,,,0.00,0.000000,,2013-03-16 06:12:00,
2013-03-16 01:32:00,53.0,47.0,-100.00,SSW,210,3.0,12.0,79,0.00,,,0.00,0.000000,,2013-03-16 06:32:00,
2013-03-16 01:42:00,53.0,47.0,-100.00,SSW,210,3.0,12.0,79,0.00,,,0.00,0.000000,,2013-03-16 06:42:00,
2013-03-16 01:52:00,53.0,47.0,-100.00,SSW,210,3.0,12.0,79,0.00,,,0.00,0.000000,,2013-03-16 06:52:00,
2013-03-16 02:02:00,53.0,47.0,-100.00,SSW,210,3.0,12.0,79,0.00,,,0.00,0.000000,,2013-03-16 07:02:00,
2013-03-16 02:12:00,53.0,47.0,-100.00,SSW,210,3.0,12.0,79,0.00,,,0.00,0.000000,,2013-03-16 07:12:00,
2013-03-16 02:42:00,50.0,46.0,-100.00,SSW,203,3.0,7.0,87,0.00,,,-99.99,0.000000,,2013-03-16 07:42:00,
2013-03-16 02:52:00,50.0,46.0,-100.00,SSW,203,3.0,7.0,87,0.00,,,-99.99,0.000000,,2013-03-16 07:52:00,
2013-03-16 03:02:00,50.0,46.0,-100.00,SSW,203,3.0,7.0,87,0.00,,,-99.99,0.000000,,2013-03-16 08:02:00,
2013-03-16 03:12:00,50.0,46.0,-100.00,SSW,203,3.0,7.0,87,0.00,,,-99.99,0.000000,,2013-03-16 08:12:00,
2013-03-16 03:42:00,50.0,47.0,-100.00,SSW,205,2.0,7.0,90,0.00,,,0.00,0.000000,,2013-03-16 08:42:00,
2013-03-16 03:52:00,50.0,47.0,-100.00,SSW,205,2.0,7.0,90,0.00,,,0.00,0.000000,,2013-03-16 08:52:00,
2013-03-16 04:02:00,50.0,47.0,-100.00,SSW,205,2.0,7.0,90,0.00,,,0.00,0.000000,,2013-03-16 09:02:00,
2013-03-16 04:12:00,50.0,47.0,-100.00,SSW,205,2.0,7.0,90,0.00,,,0.00,0.000000,,2013-03-16 09:12:00,
2013-03-16 04:43:00,48.0,46.0,-100.00,West,275,0.0,5.0,92,0.00,,,0.00,0.000000,,2013-03-16 09:43:00,
2013-03-16 04:53:00,48.0,46.0,-100.00,West,275,0.0,5.0,92,0.00,,,0.00,0.000000,,2013-03-16 09:53:00,
2013-03-16 05:03:00,48.0,46.0,-100.00,West,275,0.0,5.0,92,0.00,,,0.00,0.000000,,2013-03-16 10:03:00,
2013-03-16 05:12:00,48.0,46.0,-100.00,West,275,0.0,5.0,92,0.00,,,0.00,0.000000,,2013-03-16 10:12:00,
2013-03-16 05:42:00,47.0,46.0,-100.00,SSW,211,0.0,3.0,95,0.00,,,0.00,0.000000,,2013-03-16 10:42:00,
2013-03-16 05:53:00,47.0,46.0,-100.00,SSW,211,0.0,3.0,95,0.00,,,0.00,0.000000,,2013-03-16 10:53:00,
2013-03-16 06:03:00,47.0,46.0,-100.00,SSW,211,0.0,3.0,95,0.00,,,0.00,0.000000,,2013-03-16 11:03:00,
2013-03-16 06:12:00,47.0,46.0,-100.00,SSW,211,0.0,3.0,95,0.00,,,0.00,0.000000,,2013-03-16 11:12:00,
2013-03-16 06:43:00,47.0,46.0,-100.00,West,267,0.0,3.0,96,0.00,,,0.00,0.000000,,2013-03-16 11:43:00,
2013-03-16 06:53:00,47.0,46.0,-100.00,West,267,0.0,3.0,96,0.00,,,0.00,0.000000,,2013-03-16 11:53:00,
2013-03-16 07:02:00,47.0,46.0,-100.00,West,267,0.0,3.0,96,0.00,,,0.00,0.000000,,2013-03-16 12:02:00,
2013-03-16 07:12:00,47.0,46.0,-100.00,West,267,0.0,3.0,96,0.00,,,0.00,0.000000,,2013-03-16 12:12:00,
2013-03-16 07:43:00,47.0,46.0,-100.00,SW,217,0.0,2.0,96,0.00,,,0.00,3.000000,,2013-03-16 12:43:00,
2013-03-16 07:53:00,47.0,46.0,-100.00,SW,217,0.0,2.0,96,0.00,,,0.00,3.000000,,2013-03-16 12:53:00,
2013-03-16 08:02:00,47.0,46.0,-100.00,SW,217,0.0,2.0,96,0.00,,,0.00,3.000000,,2013-03-16 13:02:00,
2013-03-16 08:12:00,47.0,46.0,-100.00,SW,217,0.0,2.0,96,0.00,,,0.00,3.000000,,2013-03-16 13:12:00,
2013-03-16 08:42:00,53.0,52.0,-100.00,SSW,193,3.0,5.0,95,0.00,,,0.00,112.000000,,2013-03-16 13:42:00,
2013-03-16 08:53:00,53.0,52.0,-100.00,SSW,193,3.0,5.0,95,0.00,,,0.00,112.000000,,2013-03-16 13:53:00,
2013-03-16 09:02:00,53.0,52.0,-100.00,SSW,193,3.0,5.0,95,0.00,,,0.00,112.000000,,2013-03-16 14:02:00,
2013-03-16 09:12:00,53.0,52.0,-100.00,SSW,193,3.0,5.0,95,0.00,,,0.00,112.000000,,2013-03-16 14:12:00,
2013-03-16 09:42:00,61.0,53.0,-100.00,WSW,238,5.0,10.0,74,0.00,,,0.00,151.000000,,2013-03-16 14:42:00,
2013-03-16 09:52:00,61.0,53.0,-100.00,WSW,238,5.0,10.0,74,0.00,,,0.00,151.000000,,2013-03-16 14:52:00,
2013-03-16 10:02:00,61.0,53.0,-100.00,WSW,238,5.0,10.0,74,0.00,,,0.00,151.000000,,2013-03-16 15:02:00,
2013-03-16 10:12:00,61.0,53.0,-100.00,WSW,238,5.0,10.0,74,0.00,,,0.00,151.000000,,2013-03-16 15:12:00,
2013-03-16 10:44:00,69.0,53.0,-100.00,WSW,239,8.0,19.0,57,0.00,,,0.00,566.000000,,2013-03-16 15:44:00,
2013-03-16 10:53:00,69.0,53.0,-100.00,WSW,239,8.0,19.0,57,0.00,,,0.00,566.000000,,2013-03-16 15:53:00,
2013-03-16 11:03:00,69.0,53.0,-100.00,WSW,239,8.0,19.0,57,0.00,,,0.00,566.000000,,2013-03-16 16:03:00,
2013-03-16 11:12:00,69.0,53.0,-100.00,WSW,239,8.0,19.0,57,0.00,,,0.00,566.000000,,2013-03-16 16:12:00,
2013-03-16 11:43:00,73.0,49.0,-100.00,SW,233,9.0,18.0,42,0.00,,,0.00,736.000000,,2013-03-16 16:43:00,
2013-03-16 11:53:00,73.0,49.0,-100.00,SW,233,9.0,18.0,42,0.00,,,0.00,736.000000,,2013-03-16 16:53:00,
2013-03-16 12:03:00,73.0,49.0,-100.00,SW,233,9.0,18.0,42,0.00,,,0.00,736.000000,,2013-03-16 17:03:00,
2013-03-16 12:12:00,73.0,49.0,-100.00,SW,233,9.0,18.0,42,0.00,,,0.00,736.000000,,2013-03-16 17:12:00,
2013-03-16 12:43:00,77.0,47.0,-100.00,SSW,207,7.0,20.0,35,0.00,,,0.00,845.000000,,2013-03-16 17:43:00,
2013-03-16 12:53:00,77.0,47.0,-100.00,SSW,207,7.0,20.0,35,0.00,,,0.00,845.000000,,2013-03-16 17:53:00,
2013-03-16 13:02:00,77.0,47.0,-100.00,SSW,207,7.0,20.0,35,0.00,,,0.00,845.000000,,2013-03-16 18:02:00,
2013-03-16 13:13:00,77.0,47.0,-100.00,SSW,207,7.0,20.0,35,0.00,,,0.00,845.000000,,2013-03-16 18:13:00,
2013-03-16 13:43:00,79.0,50.0,-100.00,SSW,192,7.0,16.0,36,0.00,,,0.00,893.000000,,2013-03-16 18:43:00,
2013-03-16 13:53:00,79.0,50.0,-100.00,SSW,192,7.0,16.0,36,0.00,,,0.00,893.000000,,2013-03-16 18:53:00,
2013-03-16 14:02:00,79.0,50.0,-100.00,SSW,192,7.0,16.0,36,0.00,,,0.00,893.000000,,2013-03-16 19:02:00,
2013-03-16 14:12:00,79.0,50.0,-100.00,SSW,192,7.0,16.0,36,0.00,,,0.00,893.000000,,2013-03-16 19:12:00,
2013-03-16 14:42:00,78.0,50.0,-100.00,SSW,203,7.0,17.0,38,0.00,,,-99.99,612.000000,,2013-03-16 19:42:00,
2013-03-16 14:53:00,78.0,50.0,-100.00,SSW,203,7.0,17.0,38,0.00,,,-99.99,612.000000,,2013-03-16 19:53:00,
2013-03-16 15:02:00,78.0,50.0,-100.00,SSW,203,7.0,17.0,38,0.00,,,-99.99,612.000000,,2013-03-16 20:02:00,
2013-03-16 15:12:00,78.0,50.0,-100.00,SSW,203,7.0,17.0,38,0.00,,,-99.99,612.000000,,2013-03-16 20:12:00,
2013-03-16 15:42:00,78.0,49.0,-100.00,South,188,7.0,17.0,36,0.00,,,0.00,769.000000,,2013-03-16 20:42:00,
2013-03-16 15:52:00,78.0,49.0,-100.00,South,188,7.0,17.0,36,0.00,,,0.00,769.000000,,2013-03-16 20:52:00,
2013-03-16 16:02:00,78.0,49.0,-100.00,South,188,7.0,17.0,36,0.00,,,0.00,769.000000,,2013-03-16 21:02:00,
2013-03-16 16:12:00,78.0,49.0,-100.00,South,188,7.0,17.0,36,0.00,,,0.00,769.000000,,2013-03-16 21:12:00,
2013-03-16 16:43:00,75.0,50.0,-100.00,SSW,196,7.0,18.0,42,0.00,,,0.00,298.000000,,2013-03-16 21:43:00,
2013-03-16 16:53:00,75.0,50.0,-100.00,SSW,196,7.0,18.0,42,0.00,,,0.00,298.000000,,2013-03-16 21:53:00,
2013-03-16 17:03:00,75.0,50.0,-100.00,SSW,196,7.0,18.0,42,0.00,,,0.00,298.000000,,2013-03-16 22:03:00,
2013-03-16 17:12:00,75.0,50.0,-100.00,SSW,196,7.0,18.0,42,0.00,,,0.00,298.000000,,2013-03-16 22:12:00,
2013-03-16 17:42:00,75.0,50.0,-100.00,South,186,8.0,18.0,42,0.00,,,0.00,278.000000,,2013-03-16 22:42:00,
2013-03-16 17:53:00,75.0,50.0,-100.00,South,186,8.0,18.0,42,0.00,,,0.00,278.000000,,2013-03-16 22:53:00,
2013-03-16 18:02:00,75.0,50.0,-100.00,South,186,8.0,18.0,42,0.00,,,0.00,278.000000,,2013-03-16 23:02:00,
2013-03-16 18:12:00,75.0,50.0,-100.00,South,186,8.0,18.0,42,0.00,,,0.00,278.000000,,2013-03-16 23:12:00,
2013-03-16 18:42:00,70.0,49.0,-100.00,SSW,193,9.0,18.0,48,0.00,,,0.00,146.000000,,2013-03-16 23:42:00,
2013-03-16 18:53:00,70.0,49.0,-100.00,SSW,193,9.0,18.0,48,0.00,,,0.00,146.000000,,2013-03-16 23:53:00,
2013-03-16 19:02:00,70.0,49.0,-100.00,SSW,193,9.0,18.0,48,0.00,,,0.00,146.000000,,2013-03-17 00:02:00,
2013-03-16 19:12:00,70.0,49.0,-100.00,SSW,193,9.0,18.0,48,0.00,,,0.00,146.000000,,2013-03-17 00:12:00,
2013-03-16 19:43:00,65.0,48.0,-100.00,SSW,194,5.0,16.0,55,0.00,,,0.00,10.000000,,2013-03-17 00:43:00,
2013-03-16 19:52:00,65.0,48.0,-100.00,SSW,194,5.0,16.0,55,0.00,,,0.00,10.000000,,2013-03-17 00:52:00,
2013-03-16 20:02:00,65.0,48.0,-100.00,SSW,194,5.0,16.0,55,0.00,,,0.00,10.000000,,2013-03-17 01:02:00,
2013-03-16 20:12:00,65.0,48.0,-100.00,SSW,194,5.0,16.0,55,0.00,,,0.00,10.000000,,2013-03-17 01:12:00,
2013-03-16 20:43:00,63.0,50.0,-100.00,SSW,194,4.0,10.0,62,0.00,,,0.00,0.000000,,2013-03-17 01:43:00,
2013-03-16 20:53:00,63.0,50.0,-100.00,SSW,194,4.0,10.0,62,0.00,,,0.00,0.000000,,2013-03-17 01:53:00,
2013-03-16 21:02:00,63.0,50.0,-100.00,SSW,194,4.0,10.0,62,0.00,,,0.00,0.000000,,2013-03-17 02:02:00,
2013-03-16 21:12:00,63.0,50.0,-100.00,SSW,194,4.0,10.0,62,0.00,,,0.00,0.000000,,2013-03-17 02:12:00,
2013-03-16 21:43:00,61.0,51.0,-100.00,South,189,3.0,9.0,70,0.00,,,0.00,0.000000,,2013-03-17 02:43:00,
2013-03-16 21:53:00,61.0,51.0,-100.00,South,189,3.0,9.0,70,0.00,,,0.00,0.000000,,2013-03-17 02:53:00,
2013-03-16 22:02:00,61.0,51.0,-100.00,South,189,3.0,9.0,70,0.00,,,0.00,0.000000,,2013-03-17 03:02:00,
2013-03-16 22:12:00,61.0,51.0,-100.00,South,189,3.0,9.0,70,0.00,,,0.00,0.000000,,2013-03-17 03:12:00,
2013-03-16 22:43:00,59.0,53.0,-100.00,South,187,3.0,7.0,81,0.00,,,0.00,0.000000,,2013-03-17 03:43:00,
2013-03-16 22:53:00,59.0,53.0,-100.00,South,187,3.0,7.0,81,0.00,,,0.00,0.000000,,2013-03-17 03:53:00,
2013-03-16 23:03:00,59.0,53.0,-100.00,South,187,3.0,7.0,81,0.00,,,0.00,0.000000,,2013-03-17 04:03:00,
2013-03-16 23:12:00,59.0,53.0,-100.00,South,187,3.0,7.0,81,0.00,,,0.00,0.000000,,2013-03-17 04:12:00,
2013-03-16 23:43:00,57.0,54.0,-100.00,South,181,2.0,6.0,90,0.00,,,0.00,0.000000,,2013-03-17 04:43:00,
2013-03-16 23:53:00,57.0,54.0,-100.00,South,181,2.0,6.0,90,0.00,,,0.00,0.000000,,2013-03-17 04:53:00,